N8IR-19 Weather Reports


Display with metric or nautical units.
time (UTC)temp
F
wind
direction
speed
MPH
gust
MPH
rain 1hr
in
rain 24hr
in
rain mn
in
humidity
%
barometer
mb
20260506051416 49 293 3.0 5.0 0.08 1.08 0.09 55 989.0
20260506050938 48 270 2.0 3.0 0.07 1.07 0.08 55 989.1
20260506050419 48 270 1.0 2.0 0.08 1.07 0.08 54 989.0
20260506044917 48 203 1.0 2.0 0.07 1.05 0.06 54 989.1
20260506044416 48 0.0 1.0 0.07 1.04 0.05 54 989.1
20260506043917 48 203 2.0 3.0 0.06 1.03 0.04 54 989.2
20260506043416 48 203 1.0 2.0 0.07 1.03 0.04 54 989.1
20260506042936 48 203 1.0 1.0 0.06 1.02 0.03 54 989.1
20260506042437 48 203 1.0 2.0 0.06 1.01 0.02 54 989.2
20260506041919 48 203 2.0 2.0 0.07 1.01 0.02 54 989.1
20260506041417 48 203 2.0 3.0 0.07 1.00 0.01 53 989.2
20260506040919 48 203 2.0 3.0 0.07 1.00 0.01 53 989.2
20260506040437 48 203 3.0 4.0 0.07 0.99 0.00 53 989.1
20260506035919 48 0.0 0.0 0.08 0.99 0.99 53 988.9
20260506035420 48 203 1.0 2.0 0.09 0.99 0.99 53 989.0
20260506034940 48 203 1.0 2.0 0.09 0.98 0.98 53 989.3
20260506034419 49 203 3.0 3.0 0.08 0.97 0.97 53 989.2
20260506033916 49 203 2.0 4.0 0.09 0.97 0.97 53 989.4
20260506033418 49 203 4.0 5.0 0.10 0.96 0.96 53 989.4
20260506032959 49 225 4.0 5.0 0.11 0.96 0.96 53 989.6
20260506032416 49 225 3.0 4.0 0.11 0.95 0.95 53 989.5
20260506031916 49 225 3.0 4.0 0.12 0.94 0.94 53 989.6
20260506031417 49 225 4.0 5.0 0.12 0.93 0.93 53 989.7
20260506030919 49 203 4.0 5.0 0.13 0.93 0.93 53 989.7
20260506030418 49 225 3.0 6.0 0.13 0.92 0.92 53 989.7
20260506025916 49 225 4.0 5.0 0.12 0.91 0.91 53 989.9
20260506025417 49 225 3.0 4.0 0.12 0.90 0.90 53 989.7
20260506024916 49 225 3.0 5.0 0.12 0.89 0.89 53 989.8
20260506024419 49 225 3.0 4.0 0.13 0.89 0.89 53 989.8
20260506023916 49 0.0 1.0 0.12 0.88 0.88 53 989.6
20260506023420 49 225 4.0 5.0 0.11 0.86 0.86 53 989.8
20260506022919 49 293 3.0 4.0 0.10 0.85 0.85 53 989.7
20260506022419 49 293 2.0 3.0 0.09 0.84 0.84 53 989.8
20260506021919 49 293 2.0 3.0 0.07 0.82 0.82 53 989.6
20260506021419 49 293 2.0 3.0 0.07 0.81 0.81 53 989.6
20260506021020 49 293 2.0 3.0 0.06 0.80 0.80 53 989.5
20260506020439 49 293 3.0 4.0 0.05 0.79 0.79 53 989.5
20260506015916 49 293 4.0 4.0 0.06 0.79 0.79 53 989.5
20260506015418 49 293 2.0 4.0 0.05 0.78 0.78 53 989.4
20260506014921 50 293 3.0 3.0 0.05 0.77 0.77 53 989.4
20260506014419 50 293 2.0 3.0 0.04 0.76 0.76 53 989.4
20260506013939 50 293 2.0 3.0 0.04 0.76 0.76 53 989.2
20260506013417 50 0.0 0.0 0.04 0.75 0.75 53 989.2
20260506012916 50 0.0 0.0 0.04 0.75 0.75 53 989.0
20260506012440 50 0.0 0.0 0.04 0.75 0.75 53 988.9
20260506011939 50 0.0 0.0 0.04 0.75 0.75 53 988.9
20260506011419 50 0.0 0.0 0.04 0.74 0.74 53 988.8
20260506010919 50 0.0 0.0 0.04 0.74 0.74 53 988.8
20260506010422 50 0.0 0.0 0.04 0.74 0.74 52 988.8
20260506005921 50 0.0 0.0 0.04 0.73 0.73 53 988.8
20260506005422 50 0.0 0.0 0.05 0.73 0.73 53 988.8
20260506004922 50 0.0 0.0 0.05 0.72 0.72 53 988.8
20260506004421 50 338 1.0 2.0 0.05 0.72 0.72 53 988.9
20260506003921 50 0.0 1.0 0.06 0.72 0.72 52 988.9
20260506003523 50 338 1.0 3.0 0.06 0.71 0.71 52 989.0
20260506003001 50 0.0 0.0 0.06 0.71 0.71 52 989.0
20260506002421 50 0.0 2.0 0.06 0.71 0.71 52 988.9
20260506001921 50 338 2.0 2.0 0.07 0.71 0.71 52 988.9
20260506001421 50 338 1.0 1.0 0.06 0.70 0.70 52 988.9
20260506000941 50 338 1.0 2.0 0.07 0.70 0.70 52 988.9
20260506000423 51 0.0 1.0 0.07 0.70 0.70 51 988.8
20260505235918 51 338 1.0 3.0 0.06 0.69 0.69 51 988.8
20260505235421 51 338 1.0 3.0 0.05 0.68 0.68 51 988.8
20260505234920 51 338 3.0 4.0 0.04 0.67 0.67 52 988.8
20260505234421 51 0 3.0 4.0 0.04 0.67 0.67 51 988.7
20260505233920 51 338 4.0 6.0 0.03 0.66 0.66 51 988.6
20260505233420 51 338 3.0 5.0 0.02 0.65 0.65 51 988.6
20260505232920 51 0 2.0 3.0 0.03 0.65 0.65 51 988.5
20260505232419 51 0 4.0 6.0 0.06 0.65 0.65 51 988.6
20260505231921 52 0 8.0 9.0 0.05 0.64 0.64 51 988.6
20260505231421 52 0 5.0 8.0 0.06 0.64 0.64 51 988.6
20260505230921 52 0 7.0 9.0 0.07 0.63 0.63 51 988.5
20260505230421 52 23 7.0 9.0 0.10 0.63 0.63 51 988.5
20260505225920 51 0 8.0 10.0 0.12 0.63 0.63 51 988.6
20260505225438 52 0 7.0 9.0 0.15 0.63 0.63 51 988.7
20260505224921 51 0 6.0 8.0 0.16 0.63 0.63 51 988.7
20260505224418 52 23 6.0 8.0 0.18 0.63 0.63 51 988.7
20260505223920 52 0 9.0 9.0 0.20 0.63 0.63 51 988.8
20260505223420 52 0 6.0 8.0 0.23 0.63 0.63 51 988.9
20260505222918 52 0 6.0 8.0 0.25 0.62 0.62 51 988.8
20260505222420 51 0.0 1.0 0.23 0.59 0.59 51 989.1
20260505221918 51 0 2.0 4.0 0.24 0.59 0.59 51 989.0
20260505221420 52 338 3.0 4.0 0.23 0.58 0.58 51 988.8
20260505220938 51 338 3.0 5.0 0.22 0.56 0.56 51 988.7
20260505220420 51 338 4.0 5.0 0.20 0.53 0.53 51 988.8
20260505215920 52 315 3.0 4.0 0.18 0.51 0.51 50 988.7
20260505215418 52 338 6.0 9.0 0.16 0.48 0.48 51 988.6
20260505214922 52 338 7.0 10.0 0.15 0.47 0.47 51 988.5
20260505214441 52 0 8.0 11.0 0.14 0.45 0.45 51 988.4
20260505213918 52 0 11.0 12.0 0.13 0.43 0.43 51 988.3
20260505213418 52 0 9.0 11.0 0.10 0.40 0.40 51 988.4
20260505212917 52 315 2.0 3.0 0.08 0.37 0.37 50 988.5
20260505212419 52 338 2.0 5.0 0.08 0.36 0.36 50 988.3
20260505211918 52 338 2.0 3.0 0.07 0.35 0.35 50 988.0
20260505211419 52 338 3.0 5.0 0.08 0.35 0.35 50 988.1
20260505210938 52 315 3.0 4.0 0.08 0.34 0.34 50 988.1
20260505210418 52 315 2.0 4.0 0.08 0.33 0.33 50 988.2
20260505205918 52 338 4.0 6.0 0.09 0.33 0.33 50 988.2
20260505205418 52 270 2.0 4.0 0.10 0.32 0.32 50 988.1
20260505204918 53 338 4.0 6.0 0.12 0.32 0.32 50 988.3
20260505204418 53 293 5.0 10.0 0.13 0.31 0.31 50 988.2
20260505203918 53 293 5.0 6.0 0.13 0.30 0.30 50 988.2
20260505203418 53 293 6.0 9.0 0.14 0.30 0.30 50 988.4
20260505202938 53 270 7.0 9.0 0.14 0.29 0.29 50 988.4
20260505202417 54 293 7.0 10.0 0.13 0.28 0.28 50 988.5
20260505201919 54 270 8.0 11.0 0.14 0.28 0.28 50 988.3
20260505201418 54 293 7.0 9.0 0.13 0.27 0.27 50 988.4
20260505200918 55 293 8.0 11.0 0.13 0.26 0.26 50 988.5
20260505200418 55 270 9.0 12.0 0.14 0.25 0.25 50 988.6
20260505195939 56 270 5.0 8.0 0.14 0.24 0.24 50 988.6
20260505195418 56 270 9.0 12.0 0.13 0.22 0.22 50 988.6
20260505194918 57 270 10.0 13.0 0.12 0.20 0.20 50 988.5
20260505194419 57 270 7.0 8.0 0.11 0.18 0.18 50 988.5
20260505193920 57 270 4.0 6.0 0.11 0.17 0.17 50 988.4
20260505193440 57 270 3.0 3.0 0.11 0.16 0.16 50 988.4
20260505192921 57 270 3.0 4.0 0.11 0.15 0.15 50 988.4
20260505192419 57 270 5.0 6.0 0.12 0.15 0.15 50 988.3
20260505191920 57 270 4.0 6.0 0.12 0.14 0.14 50 988.3
20260505191418 57 248 4.0 4.0 0.12 0.14 0.14 50 988.2
20260505190919 57 248 4.0 4.0 0.12 0.13 0.13 50 988.3
20260505190420 58 248 3.0 3.0 0.10 0.11 0.11 50 988.2
20260505185921 58 248 4.0 7.0 0.10 0.10 0.10 50 988.2
20260505185420 58 270 3.0 3.0 0.09 0.09 0.09 50 988.2
20260505184920 58 270 3.0 4.0 0.08 0.08 0.08 50 988.1
20260505184421 58 270 2.0 3.0 0.07 0.07 0.07 51 988.1
20260505183917 58 270 2.0 3.0 0.06 0.06 0.06 51 988.1
20260505183439 58 270 3.0 4.0 0.05 0.05 0.05 51 988.1
20260505182938 59 270 3.0 4.0 0.04 0.04 0.04 52 988.1
20260505182441 59 270 3.0 4.0 0.03 0.03 0.03 53 988.2
20260505181920 59 270 6.0 7.0 0.02 0.02 0.02 54 988.2
20260505181420 59 270 6.0 8.0 0.02 0.02 0.02 54 988.1
20260505180920 60 270 7.0 9.0 0.01 0.01 0.01 55 988.1
20260505180418 60 270 7.0 9.0 0.01 0.01 0.01 56 988.0
20260505175938 61 270 7.0 9.0 0.00 0.00 0.00 56 988.0
20260505175420 61 248 7.0 8.0 0.00 0.00 0.00 56 988.0
20260505174919 61 248 7.0 8.0 0.00 0.00 0.00 56 988.0
20260505174420 61 248 8.0 9.0 0.00 0.00 0.00 55 987.9
20260505173920 61 248 8.0 9.0 0.00 0.00 0.00 55 988.0
20260505173422 61 248 9.0 10.0 0.00 0.00 0.00 55 988.0
20260505172920 61 248 6.0 8.0 0.00 0.00 0.00 55 988.0
20260505172417 61 225 7.0 10.0 0.00 0.00 0.00 54 988.0
20260505171940 62 225 5.0 9.0 0.00 0.00 0.00 54 988.0
20260505171420 62 248 8.0 12.0 0.00 0.00 0.00 54 987.9
20260505170921 62 225 5.0 8.0 0.00 0.00 0.00 54 987.9
20260505170417 62 248 8.0 12.0 0.00 0.00 0.00 54 987.9
20260505165917 62 225 9.0 11.0 0.00 0.00 0.00 53 987.8
20260505165418 62 225 11.0 14.0 0.00 0.00 0.00 53 987.9
20260505164917 62 225 14.0 16.0 0.00 0.00 0.00 54 987.8
20260505164420 62 248 11.0 13.0 0.00 0.00 0.00 53 987.8
20260505163920 62 225 14.0 15.0 0.00 0.00 0.00 53 987.8
20260505163417 62 225 12.0 15.0 0.00 0.00 0.00 54 987.9
20260505162919 62 225 13.0 17.0 0.00 0.00 0.00 53 987.9
20260505162419 62 248 13.0 15.0 0.00 0.00 0.00 54 987.9
20260505161918 62 248 12.0 18.0 0.00 0.00 0.00 53 988.0
20260505161419 62 248 9.0 12.0 0.00 0.00 0.00 53 987.8
20260505160940 62 248 11.0 15.0 0.00 0.00 0.00 54 987.8
20260505160417 62 248 10.0 13.0 0.00 0.00 0.00 53 987.8
20260505152917 64 248 14.0 19.0 0.00 0.00 0.00 52 987.7
20260505152418 64 248 15.0 19.0 0.00 0.00 0.00 51 987.5
20260505151918 64 248 12.0 16.0 0.00 0.00 0.00 51 987.3
20260505151417 64 248 11.0 15.0 0.00 0.00 0.00 50 987.2
20260505150917 65 225 11.0 15.0 0.00 0.00 0.00 50 987.2
20260505150417 65 248 10.0 14.0 0.00 0.00 0.00 50 986.9
20260505140417 63 248 11.0 17.0 0.00 0.00 0.00 50 985.7
20260505124920 62 225 12.0 15.0 0.00 0.00 0.00 52 985.8
20260505124419 62 225 8.0 11.0 0.00 0.00 0.00 53 985.7
20260505123920 62 248 7.0 9.0 0.00 0.00 0.00 53 985.7
20260505123418 62 225 10.0 12.0 0.00 0.00 0.00 52 985.8
20260505122920 62 225 10.0 12.0 0.00 0.00 0.00 52 985.7
20260505122458 62 225 9.0 11.0 0.00 0.00 0.00 53 985.7
20260505121920 62 248 9.0 11.0 0.00 0.00 0.00 53 985.6
20260505121419 61 248 10.0 13.0 0.00 0.00 0.00 52 985.6
20260505120917 61 225 10.0 11.0 0.00 0.00 0.00 53 985.5
20260505120420 61 225 12.0 13.0 0.00 0.00 0.00 53 985.4
20260505115937 61 225 11.0 13.0 0.00 0.00 0.00 53 985.2
20260505115417 61 248 12.0 14.0 0.00 0.00 0.00 52 985.2
20260505114917 62 225 11.0 14.0 0.00 0.00 0.00 53 985.0
20260505114417 62 225 12.0 13.0 0.00 0.00 0.00 52 984.8
20260505113919 62 225 12.0 14.0 0.00 0.00 0.00 53 984.6
20260505113420 62 225 14.0 17.0 0.00 0.00 0.00 52 984.5
20260505112920 62 225 14.0 17.0 0.00 0.00 0.00 53 984.3
20260505112417 62 225 13.0 17.0 0.00 0.00 0.00 52 984.2
20260505111920 62 225 14.0 17.0 0.00 0.00 0.00 52 983.9
20260505111439 62 225 12.0 14.0 0.00 0.00 0.00 52 984.0
20260505110917 62 225 14.0 18.0 0.00 0.00 0.00 51 984.1
20260505110417 62 225 14.0 17.0 0.00 0.00 0.00 51 983.9
20260505101939 63 225 17.0 20.0 0.00 0.00 0.00 50 983.7
20260505101417 63 225 17.0 20.0 0.00 0.00 0.00 50 983.6
20260505100919 63 225 19.0 23.0 0.00 0.00 0.00 50 983.7
20260505100419 63 225 24.0 32.0 0.00 0.00 0.00 49 983.6
20260505095921 63 225 22.0 29.0 0.00 0.00 0.00 50 983.6
20260505095419 63 225 21.0 24.0 0.00 0.00 0.00 49 983.6
20260505094919 63 225 23.0 29.0 0.00 0.00 0.00 49 983.3
20260505094419 63 225 22.0 27.0 0.00 0.00 0.00 50 983.2
20260505093936 63 225 21.0 25.0 0.00 0.00 0.00 50 983.1
20260505093419 63 203 20.0 23.0 0.00 0.00 0.00 50 983.0
20260505092918 64 225 16.0 22.0 0.00 0.00 0.00 50 983.1
20260505092520 64 225 20.0 25.0 0.00 0.00 0.00 50 983.1
20260505091917 64 225 15.0 16.0 0.00 0.00 0.00 50 983.1
20260505091418 64 225 15.0 19.0 0.00 0.00 0.00 50 983.1
20260505090916 64 225 16.0 21.0 0.00 0.00 0.00 50 983.2
20260505090439 64 225 14.0 16.0 0.00 0.00 0.00 50 983.1
20260505085939 64 225 16.0 20.0 0.00 0.00 0.00 50 983.1
20260505085417 64 225 15.0 19.0 0.00 0.00 0.00 51 983.0
20260505084957 64 225 15.0 18.0 0.00 0.00 0.00 51 982.9
20260505084419 64 225 15.0 18.0 0.00 0.00 0.00 51 983.0
20260505083941 64 225 12.0 14.0 0.00 0.00 0.00 51 982.9
20260505083419 64 203 11.0 15.0 0.00 0.00 0.00 51 982.8
20260505082919 64 225 11.0 13.0 0.00 0.00 0.00 51 982.7
20260505082417 64 225 10.0 13.0 0.00 0.00 0.00 51 982.6
20260505081918 64 225 9.0 13.0 0.00 0.00 0.00 51 982.7
20260505081420 64 225 10.0 12.0 0.00 0.00 0.00 51 982.8
20260505080919 64 203 10.0 11.0 0.00 0.00 0.00 51 982.7
20260505080419 64 225 11.0 13.0 0.00 0.00 0.00 51 982.6
20260505075916 64 225 11.0 13.0 0.00 0.00 0.00 50 982.5
20260505075417 64 225 10.0 13.0 0.00 0.00 0.00 50 982.5
20260505074941 64 225 10.0 13.0 0.00 0.00 0.00 50 982.4
20260505074419 64 225 9.0 10.0 0.00 0.00 0.00 50 982.5
20260505073921 65 225 9.0 11.0 0.00 0.00 0.00 50 982.5
20260505073419 65 225 8.0 10.0 0.00 0.00 0.00 50 982.6
20260505072919 65 225 7.0 8.0 0.00 0.00 0.00 50 982.5
20260505072417 65 225 6.0 6.0 0.00 0.00 0.00 49 982.7
20260505071919 66 225 5.0 6.0 0.00 0.00 0.00 48 982.6
20260505071439 66 225 4.0 6.0 0.00 0.00 0.00 48 982.7
20260505070917 66 225 5.0 6.0 0.00 0.00 0.00 47 982.6
20260505070419 67 225 5.0 6.0 0.00 0.00 0.00 46 982.7
20260505065940 67 248 6.0 8.0 0.00 0.00 0.00 46 982.6
20260505065437 67 225 4.0 5.0 0.00 0.00 0.00 46 982.7
20260505064919 67 225 5.0 6.0 0.00 0.00 0.00 46 982.7
20260505064420 67 248 5.0 6.0 0.00 0.00 0.00 46 982.9
20260505063941 67 225 8.0 10.0 0.00 0.00 0.00 45 983.0
20260505063441 67 248 9.0 12.0 0.00 0.00 0.00 47 983.0
20260505062922 67 225 7.0 9.0 0.00 0.00 0.00 47 983.0
20260505062418 68 270 10.0 12.0 0.00 0.00 0.00 46 982.9
20260505061918 68 225 11.0 13.0 0.00 0.00 0.00 45 982.7
20260505061421 67 225 19.0 25.0 0.00 0.00 0.00 45 982.5
20260505060921 67 225 17.0 26.0 0.00 0.00 0.00 46 982.4
20260505060442 67 225 16.0 20.0 0.00 0.00 0.00 46 982.3
20260505055921 67 225 16.0 23.0 0.00 0.00 0.00 46 982.3
20260505055418 67 225 16.0 23.0 0.00 0.00 0.00 47 982.3
20260505054921 67 203 12.0 17.0 0.00 0.00 0.00 47 982.3
20260505054420 67 203 11.0 18.0 0.00 0.00 0.00 47 982.4
20260505053921 67 225 8.0 12.0 0.00 0.00 0.00 47 982.2
20260505053421 67 203 11.0 14.0 0.00 0.00 0.00 47 982.4
20260505052922 67 203 7.0 12.0 0.00 0.00 0.00 47 982.3
20260505052420 67 203 11.0 18.0 0.00 0.00 0.00 47 982.4